EHI
0 0 0 0 0 0 0 0 0 0 0 0 0 0 0 0 0 0 0 0 0 0 0 0 0 0 0 0 0 0 0 0 0 0 0 0 0 0 0 0 0 0 0
0 0 0 0 0 0 0 0 0 0 0 0 0 0 0 0 0 0 0 0 0 0 0 0 0 0 0 0 0 0 0 0 0 0 0 0 0 0 0 0 0 0 0
0 0 0 0 0 0 0 0 0 0 0 0 0 0 0 0 0 0 0 0 0 0 0 0 0 0 0 0 0 0 0 0 0 0 0 0 0 0 0 0 0 0 0
0 0 0 0 0 0 0 0 0 0 0 0 0 0 0 0 0 0 0 0 0 0 0 0 0 0 0 0 0 0 0 0 0 0 0 0 0 0 0 0 0 0 0
0 0 0 0 0 0 0 0 0 0 0 0 0 0 0 0 0 0 0 0 0 0 0 0 0 0 0 0 0 0 0 0 0 0 0 0 0 0 0 0 0 0 0
0 0 0 0 0 0 0 0 0 0 0 0 0 0 0 0 0 0 0 0 0 0 0 0 0 0 0 0 0 0 0 0 0 0 0 0 0 0 0 0 0 0 0
0 0 0 0 0 0 0 0 0 0 0 0 0 0 0 0 0 0 0 0 0 0 0 0 0 0 0 0 0 0 0 0 0 0 0 0 0 0 0 0 0 0 0
0 0 0 0 0 0 0 0 0 0 0 0 0 0 0 0 0 0 0 0 0 0 0 0 0 0 0 0 0 0 0 0 0 0 0 0 0 0 0 0 0 0 0
0 0 0 0 0 0 0 0 0 0 0 0 0 0 0 0 0 0 0 0 0 0 0 0 0 0 0 0 0 0 0 0 0 0 0 0 0 0 0 0 0 0 0
0 0 0 0 0 0 0 0 0 0 0 0 0 0 0 0 0 0 0 0 0 0 0 0 0 0 0 0 0 0 0 0 0 0 0 0 0 0 0 0 0 0 0
0 0 0 0 0 0 0 0 0 0 0 0 0 0 0 0 0 0 0 0 0 0 0 0 0 0 0 0 0 0 0 0 0 0 0 0 0 0 0 0 0 0 0
0 0 0 0 0 0 0 0 0 0 0 0 0 0 0 0 0 0 0 0 0 0 0 0 0 0 0 0 0 0 0 0 0 0 0 0 0 0 0 0 0 0 0
0 0 0 0 0 0 0 0 0 0 0 0 0 0 0 0 0 0 0 0 0 0 0 0 0 0 0 0 0 0 0 0 0 0 0 0 0 0 0 0 0 0 0
0 0 0 0 0 0 0 0 0 0 0 0 0 0 0 0 0 0 0 0 0 0 0 0 0 0 0 0 0 0 0 0 0 0 0 0 0 0 0 0 0 0 0
0 0 0 0 0 0 0 0 0 0 0 0 0 0 0 0 0 0 0 0 0 0 0 0 0 0 0 0 0 0 0 0 0 0 0 0 0 0 0 0 0 0 0
0 0 0 0 0 0 0 0 0 0 0 0 0 0 0 0 0 0 0 0 0 0 0 0 0 0 0 0 0 0 0 0 0 0 0 0 0 0 0 0 0 0 0
0 0 0 0 0 0 0 0 0 0 0 0 0 0 0 0 0 0 0 0 0 0 0 0 0 0 0 0 0 0 0 0 0 0 0 0 0 0 0 0 0 0 0
0 0 0 0 0 0 0 0 0 0 0 0 0 0 0 0 0 0 0 0 0 0 0 0 0 0 0 0 0 0 0 0 0 0 0 0 0 0 0 0 0 0 0
0 0 0 0 0 0 0 0 0 0 0 0 0 0 0 0 0 0 0 0 0 0 0 0 0 0 0 0 0 0 0 0 0 0 0 0 0 0 0 0 0 0 0
0 0 0 0 0 0 0 0 0 0 0 0 0 0 0 0 0 0 0 0 0 0 0 0 0 0 0 0 0 0 0 0 0 0 0 0 0 0 0 0 0 0 0
0 0 0 0 0 0 0 0 0 0 0 0 0 0 0 0 0 0 0 0 0 0 0 0 0 0 0 0 0 0 0 0 0 0 0 0 0 0 0 0 0 0 0
0 0 0 0 0 0 0 0 0 0 0 0 0 0 0 0 0 0 0 0 0 0 0 0 0 0 0 0 0 0 0 0 0 0 0 0 0 0 0 0 0 0 0
0 0 0 0 0 0 0 0 0 0 0 0 0 0 0 0 0 0 0 0 0 0 0 0 0 0 0 0 0 0 0 0 0 0 0 0 0 0 0 0 0 0 0
0 0 0 0 0 0 0 0 0 0 0 0 0 0 0 0 0 0 0 0 0 0 0 0 0 0 0 0 0 0 0 0 0 0 0 0 0 0 0 0 0 0 0
0 0 0 0 0 0 0 0 0 0 0 0 0 0 0 0 0 0 0 0 0 0 0 0 0 0 0 0 0 0 0 0 0 0 0 0 0 0 0 0 0 0 0
0 0 0 0 0 0 0 0 0 0 0 0 0 0 0 0 0 0 0 0 0 0 0 0 0 0 0 0 0 0 0 0 0 0 0 0 0 0 0 0 0 0 0
Wind_Speed
3 3 7 10 11 12 13 13 14 14 16 17 17 17 17 17 17 17 17 17 17 18 18 19 19 19 19 19 20 20 20 20 19 19 19 19 19 20 19 19 16 12 20
6 5 8 10 11 12 13 13 13 14 15 16 17 17 17 17 17 17 16 16 16 17 17 18 19 19 19 19 19 19 19 19 19 18 18 17 18 19 19 18 17 12 18
7 6 7 10 11 12 12 12 13 14 15 16 16 16 16 16 16 16 16 16 16 16 17 17 18 18 18 18 18 18 18 18 17 17 14 7 10 17 18 17 17 17 17
8 6 7 10 11 12 12 12 12 14 14 15 16 16 16 16 16 16 15 15 15 15 16 17 17 17 17 17 17 17 17 17 16 14 7 5 6 15 17 16 16 16 16
7 6 7 10 11 12 12 12 13 13 14 14 15 15 15 15 15 15 15 15 15 15 16 16 16 17 16 16 16 16 16 15 14 10 6 5 5 14 15 15 15 15 15
6 6 7 10 11 12 12 13 13 13 14 14 14 15 15 15 15 15 15 15 14 14 15 16 15 16 16 15 15 15 15 14 10 6 6 5 4 12 14 14 14 14 14
7 6 7 10 10 11 11 12 13 13 13 14 14 14 14 14 14 14 14 14 14 14 15 15 15 15 14 14 14 14 13 12 7 6 5 4 6 12 13 13 13 13 13
7 6 6 9 10 10 10 11 11 12 13 13 13 13 13 13 14 14 14 14 13 13 14 14 13 13 13 13 13 12 11 9 7 6 5 4 7 11 12 12 12 12 12
6 6 5 6 7 9 10 9 10 11 11 11 12 12 11 11 12 12 12 13 13 13 13 12 12 12 12 12 11 11 10 10 6 4 5 4 8 11 11 11 11 11 12
6 6 5 5 5 5 6 9 10 10 10 10 10 11 10 10 10 10 9 11 12 12 12 11 11 11 11 11 10 9 9 7 5 4 3 4 8 10 11 11 11 11 12
7 6 6 6 5 5 5 7 8 9 10 10 9 11 9 5 5 6 7 9 10 10 11 10 10 10 9 9 9 8 6 3 4 3 3 5 8 9 9 10 10 10 11
12 9 7 7 6 6 5 5 4 4 5 5 5 6 4 4 4 5 7 8 8 8 8 9 9 8 7 4 5 6 3 3 3 2 3 6 7 7 8 8 9 9 10
11 10 9 8 7 6 5 4 3 3 3 4 5 5 5 4 3 3 3 3 4 4 3 4 5 3 3 3 3 2 2 2 2 2 3 6 6 5 6 7 8 8 9
11 12 10 9 8 7 6 5 4 3 3 3 4 5 4 3 3 3 2 2 2 2 2 2 2 3 3 3 3 3 2 1 1 1 2 5 5 4 5 6 7 7 8
12 13 12 11 10 8 6 5 5 5 4 4 4 5 5 4 4 3 2 2 2 2 2 2 2 2 2 3 2 3 2 2 1 1 2 5 5 4 4 5 6 6 7
14 13 12 13 11 9 8 6 6 5 5 5 5 5 6 5 4 4 3 3 3 2 2 2 2 2 2 2 2 2 2 2 1 1 1 3 5 5 4 4 4 5 6
13 12 13 13 12 11 10 9 6 6 5 5 5 6 6 6 6 5 4 4 3 3 3 2 2 2 2 1 2 2 2 2 2 1 1 1 2 5 4 4 3 4 5
10 12 13 11 13 13 10 9 6 6 6 6 5 6 7 7 7 6 5 4 4 3 3 3 2 2 2 2 1 1 1 1 2 2 1 1 1 2 3 4 4 3 4
13 12 13 13 14 13 11 8 7 7 7 6 6 6 7 8 8 6 5 5 5 4 3 3 2 2 2 2 2 1 1 2 2 2 2 2 2 1 1 3 4 3 3
11 12 13 13 13 12 10 7 6 7 7 7 7 8 9 8 9 7 6 6 6 4 4 4 4 3 2 3 2 1 1 2 2 2 3 2 2 2 2 2 2 2 2
11 13 14 15 14 12 10 10 10 10 9 8 8 9 10 10 10 9 7 7 7 6 6 6 4 4 3 3 2 0 0 1 3 3 3 3 3 3 3 2 2 1 0
15 15 15 16 16 15 13 11 8 7 7 8 7 9 11 11 11 10 10 8 8 7 7 7 6 4 3 4 4 2 2 2 3 4 4 4 5 4 4 4 3 3 2
16 17 16 18 17 17 14 7 6 5 4 7 9 10 12 12 12 11 12 10 9 9 8 9 9 8 6 5 4 5 4 5 2 2 4 5 5 5 5 4 5 5 4
17 16 17 18 17 16 16 13 13 13 13 13 10 9 10 12 12 13 12 12 11 9 10 10 10 8 7 6 5 5 4 4 4 3 3 4 6 7 7 6 7 6 6
15 15 16 16 17 16 17 17 17 16 14 8 7 9 11 11 13 13 13 12 12 11 11 10 10 11 9 8 7 4 5 4 4 4 4 4 4 7 8 8 7 7 7
12 13 13 15 17 16 18 19 19 19 16 11 11 12 11 9 10 14 13 13 13 12 12 12 11 12 11 10 8 7 6 5 6 6 7 5 6 6 7 7 8 8 7
Wind_Direction
167 177 151 133 123 118 115 114 114 112 111 109 107 104 102 99 97 95 94 93 92 92 91 90 88 85 84 82 81 80 79 78 77 77 78 78 78 77 76 72 68 63 69
149 155 141 132 126 122 119 117 116 116 114 112 109 107 105 102 100 99 98 97 96 95 94 93 91 89 87 86 85 83 81 79 76 74 73 75 77 76 75 74 72 70 70
135 137 133 130 127 124 122 121 121 120 118 115 112 110 108 106 104 103 102 101 100 99 98 97 95 93 91 89 88 85 83 81 78 74 68 55 71 76 75 72 71 69 68
134 130 131 130 131 129 128 125 123 122 120 118 116 114 112 110 108 107 105 104 103 102 101 100 98 96 94 92 90 87 84 81 77 71 52 46 63 77 75 72 69 67 66
127 127 134 133 136 135 133 130 126 124 123 122 119 118 116 114 112 110 109 108 106 105 104 101 100 99 96 94 92 89 85 80 72 59 43 45 59 78 76 74 71 67 65
128 130 139 137 139 139 136 134 131 128 127 126 124 121 119 118 116 114 113 112 109 108 106 104 102 102 100 98 94 91 86 78 61 44 38 38 55 78 78 76 74 71 67
135 134 142 140 141 141 140 138 136 133 130 128 127 124 122 121 120 118 117 115 114 111 108 106 105 105 104 101 98 92 85 76 61 45 33 29 62 77 78 75 71 69 67
142 137 138 141 141 141 141 140 140 137 134 132 131 130 128 127 125 123 121 120 119 116 112 109 108 109 108 104 99 91 80 69 59 43 32 27 68 77 76 74 74 70 68
137 134 133 137 141 142 140 139 139 137 134 134 134 130 127 128 127 124 124 125 125 122 116 112 111 112 112 109 102 93 81 69 56 37 27 20 59 70 69 70 71 69 70
142 141 139 136 135 134 134 138 136 135 133 129 126 122 120 121 121 121 123 128 130 126 120 115 111 111 113 112 106 95 81 66 52 37 20 25 55 68 69 69 70 68 69
165 159 151 146 141 137 135 138 135 132 130 124 122 121 113 107 111 116 125 128 131 129 125 119 113 108 103 105 104 94 77 61 52 33 12 32 60 68 70 71 70 70 72
181 178 170 161 155 147 142 133 130 126 127 124 126 125 118 117 117 119 126 126 126 126 124 120 113 103 95 89 91 86 71 65 50 27 13 32 58 67 71 73 75 76 77
184 182 180 173 165 158 148 147 139 132 132 133 137 135 129 122 117 112 114 116 113 111 102 105 99 98 105 110 105 97 89 71 49 21 12 27 46 64 75 78 80 77 82
185 189 185 179 174 169 161 161 158 154 153 154 154 149 143 139 139 140 136 136 131 124 125 109 107 109 110 117 123 119 109 92 62 29 12 26 35 58 78 83 84 83 86
193 193 189 184 182 176 171 173 173 172 170 166 163 164 159 158 162 160 160 160 161 150 146 138 131 129 125 126 129 132 130 114 87 52 15 28 37 52 74 81 87 94 93
199 196 191 190 187 181 182 184 182 180 174 170 175 177 172 168 170 170 174 179 182 174 164 159 159 150 146 139 142 143 140 125 109 85 46 28 35 43 60 77 85 96 98
200 195 193 193 190 189 190 190 186 184 179 183 185 183 182 179 178 178 181 190 194 180 169 158 155 140 148 151 161 154 146 148 141 132 99 54 32 37 47 71 87 102 106
195 195 195 193 194 195 194 192 189 188 187 191 187 187 190 189 183 182 188 197 189 176 174 173 166 164 177 176 174 170 160 162 165 158 135 112 74 43 42 63 75 99 123
199 195 195 196 196 198 197 194 193 190 195 194 190 193 196 195 190 188 194 196 183 181 186 182 177 172 182 187 185 183 182 188 187 169 166 158 142 118 80 69 65 64 124
201 197 198 199 199 196 195 194 195 200 203 200 198 200 196 198 195 194 197 194 183 185 192 186 185 182 178 169 155 170 203 205 192 188 185 175 169 159 142 116 76 50 95
202 200 200 201 200 195 197 200 203 208 206 206 206 203 200 199 197 198 201 195 191 198 199 189 178 183 188 152 133 158 291 210 203 202 187 184 191 186 174 169 159 146 152
207 206 205 205 202 200 204 203 203 201 204 206 205 206 204 203 200 202 204 202 199 200 200 194 183 179 186 173 160 159 242 269 232 208 194 199 200 190 195 195 188 186 184
211 209 208 207 205 204 202 192 185 186 192 201 208 211 209 206 205 205 205 204 202 202 208 204 195 192 197 197 187 170 186 223 225 220 213 208 202 201 204 200 204 200 194
215 211 210 209 207 203 198 198 196 204 213 215 210 210 204 205 208 208 207 206 206 207 211 207 203 202 194 202 208 217 208 172 179 221 230 217 209 213 210 207 207 207 202
213 210 209 208 208 202 200 203 205 213 220 213 200 203 206 206 208 210 210 209 211 212 213 208 204 205 207 207 200 190 208 216 202 203 233 218 215 221 214 210 208 208 205
212 209 207 206 209 204 203 206 209 214 215 207 205 209 210 209 210 211 212 213 214 214 214 212 210 210 213 214 211 202 191 193 201 206 225 220 220 217 209 209 211 210 205